Flag for U.S.A. Weather past 2 weeks in Peoria, Illinois, U.S.A.

Now
35 °F

Sunny.


Feels Like: 32 °F
Forecast: 12 / 29 °F
Wind: 3 mph from North

Location: Greater Peoria Regional Airport

Current Time: Mar 2, 2015 at 1:30:20 PM

Latest Report: Mar 2, 2015 at 12:54 PM


Visibility: 10 mi

Pressure: 30.51 "Hg

Humidity: 44%

Dew point: 15 °F

Location of PeoriaLocation

Historic Weather in Peoria — Graph

°F

Peoria temperature yesterday

Maximum temperature yesterday: 29 °F (at 1:54 PM)
Minimum temperature yesterday: 20 °F (at 11:54 PM)
Average temperature yesterday: 24 °F

Past Weeks' High & Low Weather Summary

 TemperatureHumidityPressure
High36 °F (Feb 24, 4:54 PM)88% (Mar 1, 8:03 AM)30.82 "Hg (Mar 1, 8:03 AM)
Low-7 °F (Feb 27, 6:54 AM)38% (Feb 19, 3:54 PM)29.84 "Hg (Feb 24, 2:54 PM)
Average16 °F63%30.31 "Hg
* Reported Feb 15 11:54 AM — Mar 2 11:54 AM, Peoria, Weather by CustomWeather, © 2015

Note: Actual official high and low records may vary slightly from our data, if they occured in-between our weather recording intervals... More about our weather records

Advertising

Peoria weather history for previous 24 hours

 ConditionsComfort  
Time TempWeatherWind HumidityBarometerVisibility
11:54 AM
Mon, Mar 2
30 °FSunny.No wind56%30.54 "Hg10 mi
10:54 AM28 °FSunny.3 mph61%30.56 "Hg10 mi
9:54 AM28 °FSunny.3 mph61%30.57 "Hg10 mi
8:54 AM25 °FSunny.5 mph63%30.58 "Hg10 mi
7:54 AM19 °FSunny.No wind77%30.57 "Hg8 mi
6:54 AM18 °FSunny.5 mph77%30.56 "Hg8 mi
5:54 AM20 °FClear.3 mph71%30.54 "Hg10 mi
4:54 AM22 °FClear.6 mph66%30.53 "Hg10 mi
3:54 AM23 °FClear.7 mph65%30.52 "Hg10 mi
2:54 AM21 °FClear.5 mph71%30.51 "Hg10 mi
1:54 AM21 °FClear.No wind71%30.51 "Hg10 mi
12:54 AM19 °FClear.5 mph77%30.51 "Hg8 mi
11:54 PM
Sun, Mar 1
20 °FClear.3 mph74%30.47 "Hg8 mi
10:54 PM21 °FClear.6 mph74%30.48 "Hg9 mi
9:54 PM22 °FClear.7 mph75%30.47 "Hg9 mi
8:54 PM21 °FClear.3 mph78%30.45 "Hg10 mi
7:54 PM21 °FClear.6 mph74%30.42 "Hg10 mi
6:54 PM22 °FClear.3 mph72%30.41 "Hg10 mi
5:54 PM25 °FClear.5 mph66%30.38 "Hg10 mi
4:54 PM27 °FSunny.9 mph63%30.37 "Hg10 mi
3:54 PM28 °FScattered clouds.9 mph66%30.36 "Hg10 mi
2:54 PM28 °FOvercast.8 mph66%30.37 "Hg10 mi
1:54 PM29 °FPartly sunny.6 mph64%30.36 "Hg10 mi
Weather by CustomWeather, © 2015

See weather overviewHow to use our weather pages